This is the latest recevied weather packets stored in our database for station/object JS2WAD-13. If no packets are shown the sender has not sent any weather packets the latest 10 day(s).
| Time | Temp. | Humidity | Pressure | Rain* | Wind** | Luminosity | Snow |
|---|---|---|---|---|---|---|---|
| 1777768591 | 20.56° C | 57% | 903.2 hPa | 0 mm | - | 156 W/m² | - |
| 1777768291 | 20° C | 57% | 903.2 hPa | 0 mm | - | 135 W/m² | - |
| 1777767991 | 20° C | 58% | 903.1 hPa | 0 mm | - | 132 W/m² | - |
| 1777767691 | 20° C | 58% | 903 hPa | 0 mm | - | 148 W/m² | - |
| 1777767391 | 20° C | 59% | 902.9 hPa | 0 mm | - | 156 W/m² | - |
| 1777767091 | 20° C | 59% | 902.9 hPa | 0 mm | - | 139 W/m² | - |
| 1777766791 | 20° C | 59% | 903 hPa | 0 mm | - | 120 W/m² | - |
| 1777766491 | 20° C | 60% | 903.1 hPa | 0 mm | - | 100 W/m² | - |
| 1777766191 | 20° C | 59% | 903.1 hPa | 0 mm | - | 83 W/m² | - |
| 1777765891 | 20° C | 59% | 903.3 hPa | 0 mm | - | 83 W/m² | - |
| 1777765591 | 20° C | 59% | 903.1 hPa | 0 mm | - | 105 W/m² | - |
| 1777765291 | 20° C | 59% | 902.8 hPa | 0 mm | - | 130 W/m² | - |
| 1777764991 | 20° C | 59% | 903 hPa | 0 mm | - | 121 W/m² | - |
| 1777764691 | 19.44° C | 59% | 902.8 hPa | 0 mm | - | 123 W/m² | - |
| 1777764391 | 19.44° C | 58% | 903 hPa | 0 mm | - | 95 W/m² | - |
| 1777764091 | 19.44° C | 59% | 902.6 hPa | 0 mm | - | 100 W/m² | - |
| 1777763791 | 19.44° C | 58% | 903.2 hPa | 0 mm | - | 95 W/m² | - |
| 1777763491 | 19.44° C | 58% | 903.6 hPa | 0 mm | - | 90 W/m² | - |
| 1777763191 | 19.44° C | 58% | 903.7 hPa | 0 mm | - | 118 W/m² | - |
| 1777762891 | 19.44° C | 58% | 903.7 hPa | 0 mm | - | 107 W/m² | - |
| 1777762591 | 19.44° C | 60% | 903.5 hPa | 0 mm | - | 104 W/m² | - |
| 1777762291 | 18.89° C | 59% | 903.6 hPa | 0 mm | - | 100 W/m² | - |
| 1777761991 | 18.89° C | 59% | 903.8 hPa | 0 mm | - | 79 W/m² | - |
| 1777761691 | 18.89° C | 59% | 903.7 hPa | 0 mm | - | 65 W/m² | - |
| 1777761391 | 18.89° C | 59% | 903.9 hPa | 0 mm | - | 63 W/m² | - |
* Rain latest hour (hover to see other rain measurements)
** Current wind speed in m/s (hover to see current wind gust speed)